Location: Julian California
(33.0790°N, 116.6010°W)
Time: 03:34:40
(UTC-07:00)

ARGOS - Pass Details

Date: 14 June 2018
Orbit: 819 x 835 km, 98.6° (Epoch: 18 August)

Event Time Altitude Azimuth Distance (km) Brightness Sun altitude
Exits shadow 21:25:49 23° 151° (SSE) 1,679 4.2 -16.0°
Maximum altitude 21:29:09 66° 74° (ENE) 906 3.2 -16.5°
Drops below altitude 10° 21:34:31 10° 354° (N) 2,448 6.3 -17.3°
Sets 21:36:54 0° 351° (N) 3,386 7.2 -17.7°
